This is the latest recevied weather packets stored in our database for station/object K3HW. If no packets are shown the sender has not sent any weather packets the latest 10 day(s).
| Time | Temp. | Humidity | Pressure | Rain* | Wind** | Luminosity | Snow |
|---|---|---|---|---|---|---|---|
| 1777564100 | 13.33° C | 77% | 1011.6 hPa | 0 mm | - | 64 W/m² | - |
| 1777563795 | 13.33° C | 77% | 1011.8 hPa | 0 mm | - | 96 W/m² | - |
| 1777563492 | 12.78° C | 77% | 1011.7 hPa | 0 mm | - | 98 W/m² | - |
| 1777563191 | 12.78° C | 78% | 1012.2 hPa | 0 mm | - | 55 W/m² | - |
| 1777562888 | 13.33° C | 78% | 1011.8 hPa | 0 mm | - | 45 W/m² | - |
| 1777562584 | 13.33° C | 78% | 1011.7 hPa | 0 mm | - | 64 W/m² | - |
| 1777562283 | 12.78° C | 78% | 1012.1 hPa | 0 mm | - | 130 W/m² | - |
| 1777561980 | 12.78° C | 79% | 1012 hPa | 0 mm | - | 104 W/m² | - |
| 1777561677 | 12.78° C | 80% | 1011.9 hPa | 0 mm | - | 73 W/m² | - |
| 1777561372 | 12.78° C | 81% | 1012.1 hPa | 0 mm | - | 94 W/m² | - |
| 1777561068 | 12.78° C | 80% | 1011.9 hPa | 0 mm | - | 65 W/m² | - |
| 1777560763 | 12.22° C | 81% | 1011.8 hPa | 0 mm | - | 46 W/m² | - |
| 1777560461 | 12.78° C | 82% | 1012.1 hPa | 0 mm | - | 40 W/m² | - |
| 1777560158 | 12.22° C | 81% | 1011.9 hPa | 0 mm | - | 44 W/m² | - |
| 1777559855 | 12.22° C | 81% | 1011.9 hPa | 0 mm | - | 41 W/m² | - |
| 1777559551 | 12.78° C | 81% | 1011.8 hPa | 0 mm | - | 49 W/m² | - |
| 1777559248 | 12.78° C | 81% | 1011.7 hPa | 0 mm | - | 55 W/m² | - |
| 1777558943 | 12.78° C | 82% | 1011.5 hPa | 0 mm | - | 86 W/m² | - |
| 1777558640 | 12.22° C | 81% | 1011.4 hPa | 0 mm | - | 72 W/m² | - |
| 1777558335 | 12.22° C | 83% | 1011.4 hPa | 0 mm | - | 130 W/m² | - |
| 1777558032 | 12.22° C | 84% | 1011.5 hPa | 0 mm | - | 113 W/m² | - |
| 1777557728 | 11.67° C | 84% | 1011.3 hPa | 0 mm | - | 75 W/m² | - |
| 1777557426 | 12.22° C | 84% | 1011.1 hPa | 0 mm | - | 91 W/m² | - |
| 1777557122 | 12.22° C | 85% | 1011.1 hPa | 0 mm | - | 71 W/m² | - |
| 1777556817 | 12.22° C | 86% | 1011.2 hPa | 0 mm | - | 138 W/m² | - |
* Rain latest hour (hover to see other rain measurements)
** Current wind speed in m/s (hover to see current wind gust speed)